Location: *
(45.1961°N, 1.9694°E)
Time: 03:48:49
(UTC+00:00)

Meteor 1-21 - Pass Details

Date: 25 August 2019
Orbit: 843 x 889 km, 81.2° (Epoch: 14 October)

Event Time Altitude Azimuth Distance (km) Brightness Sun altitude
Rises 22:00:43 0° 346° (NNW) 3,434 8.4 -28.6°
Reaches altitude 10° 22:03:10 10° 344° (NNW) 2,488 7.5 -28.8°
Enters shadow 22:08:38 67° 272° (W) 916 4.3 -29.3°
